,date,sensor 3,DO,pH,chla,PE,light
1,5/25/2021 15:15,-0.499068244,6.05,8.22,0.49,0.92,145.4396667
2,5/25/2021 15:30,-0.499068244,6.09,8.22,0.45,0.84,156.5116667
3,5/25/2021 15:45,-0.448637499,6.11,8.22,0.43,0.82,163.5886667
4,5/25/2021 16:00,-0.461245185,6.12,8.22,0.41,0.83,142.9265
5,5/25/2021 16:15,-0.41081444,6.13,8.22,0.42,0.84,149.0076667
6,5/25/2021 16:30,-0.436029813,6.16,8.23,0.44,0.93,125.0065
7,5/25/2021 16:45,-0.448637499,6.19,8.23,0.42,0.76,117.588
8,5/25/2021 17:00,0.888185073,6.23,8.23,0.43,0.82,114.4563333
9,5/25/2021 17:15,-0.058392226,6.26,8.23,0.43,0.86,180.7138333
10,5/25/2021 17:30,-0.234538877,6.27,8.23,0.41,0.72,103.8303333
11,5/25/2021 17:45,-0.360383695,6.31,8.23,0.42,0.86,92.60973333
12,5/25/2021 18:00,-0.360383695,6.34,8.23,0.42,0.87,87.54881667
13,5/25/2021 18:15,-0.297448395,6.35,8.23,0.49,0.87,79.76228333
14,5/25/2021 18:30,-0.24712078,6.36,8.24,0.42,0.82,74.33578333
15,5/25/2021 18:45,0.055051167,6.37,8.24,0.41,0.88,68.27846667
16,5/25/2021 19:00,-0.033202636,6.42,8.24,0.4,0.84,61.19683333
17,5/25/2021 19:15,0.243882852,6.41,8.24,0.38,0.88,54.97403333
18,5/25/2021 20:15,1.150321347,6.49,8.26,0.38,0.53,23.7282
19,5/25/2021 20:30,1.515273899,6.49,8.26,0.38,0.67,15.02653333
20,5/25/2021 20:45,1.162980598,6.5,8.26,0.37,0.72,6.982228333
21,5/25/2021 21:00,1.225890116,6.52,8.26,0.36,0.63,0.001684568
22,5/25/2021 21:15,0.835541713,6.55,8.26,0.38,0.68,0.00166175
23,5/25/2021 21:30,1.036903736,6.55,8.26,0.37,0.69,0.002533292
24,5/25/2021 21:45,0.558430442,6.53,8.26,0.38,0.69,0.001840085
25,5/25/2021 22:00,0.571038129,6.53,8.26,0.39,0.75,0.002131805
26,5/25/2021 22:15,0.608861187,6.52,8.26,0.4,0.77,0.001723325
27,5/25/2021 22:30,0.572184282,6.51,8.26,0.39,0.71,0.001708803
28,5/25/2021 22:45,0.558430442,6.5,8.26,0.37,0.74,0.002087423
29,5/25/2021 23:00,0.596253501,6.48,8.26,0.39,0.84,0.00195721
30,5/25/2021 23:15,0.558430442,6.48,8.26,0.4,0.76,0.00184818
31,5/25/2021 23:30,0.545848539,6.47,8.26,0.39,0.78,0.001821492
32,5/25/2021 23:45,0.558430442,6.46,8.26,0.37,0.74,0.001597267
33,5/26/2021 0:00,1.28971525,6.45,8.26,0.37,0.82,23.77522486
34,5/26/2021 0:15,1.060826402,6.47,8.27,0.41,0.82,0.001691158
35,5/26/2021 0:30,1.035394308,6.42,8.27,0.39,0.71,0.002001265
36,5/26/2021 0:45,1.315199459,6.4,8.26,0.39,0.8,0.002634338
37,5/26/2021 1:00,1.544557341,6.4,8.27,0.38,0.81,0.001693228
38,5/26/2021 1:15,1.391652086,6.38,8.26,0.38,0.72,0.002741707
39,5/26/2021 1:30,1.060826402,6.35,8.26,0.4,0.72,0.002003443
40,5/26/2021 1:45,0.984530119,6.34,8.26,0.38,0.86,0.002523168
41,5/26/2021 2:00,0.984530119,6.32,8.26,0.4,0.76,0.002399363
42,5/26/2021 2:15,0.984530119,6.31,8.26,0.4,0.85,0.001854357
43,5/26/2021 2:30,0.984530119,6.29,8.26,0.38,0.79,0.001988715
44,5/26/2021 2:45,1.009962213,6.27,8.26,0.4,0.84,0.00208853
45,5/26/2021 3:00,0.984530119,6.26,8.26,0.39,0.85,0.002487763
46,5/26/2021 3:15,1.086258496,6.25,8.26,0.44,0.94,0.002217493
47,5/26/2021 3:30,0.984530119,6.23,8.26,0.39,0.87,0.002504243
48,5/26/2021 3:45,1.009962213,6.2,8.26,0.4,0.79,0.002291377
49,5/26/2021 4:00,0.984530119,6.19,8.25,0.4,0.81,0.001989395
50,5/26/2021 4:15,0.933665931,6.19,8.25,0.39,0.84,0.001991375
51,5/26/2021 4:30,0.882801742,6.17,8.25,0.41,0.8,0.001583255
52,5/26/2021 4:45,-0.236835783,6.15,8.25,0.38,0.8,0.001950453
53,5/26/2021 5:00,-0.211403688,6.13,8.25,0.39,0.8,0.002543027
54,5/26/2021 5:15,-0.135107406,6.12,8.25,0.4,0.84,0.00242694
55,5/26/2021 5:30,-0.236835783,6.12,8.25,0.41,0.86,0.002192763
56,5/26/2021 5:45,-0.491156725,6.1,8.25,0.39,0.9,0.002268473
57,5/26/2021 6:00,-0.542020913,6.09,8.25,0.39,0.87,0.030889417
58,5/26/2021 6:15,-0.542020913,6.07,8.25,0.4,0.9,0.314115833
59,5/26/2021 6:30,-0.64395775,6.08,8.25,0.4,0.82,1.347886667
60,5/26/2021 6:45,-0.542020913,6.06,8.25,0.4,0.89,2.898511667
61,5/26/2021 7:00,-0.618473541,6.06,8.24,0.41,0.94,4.480241667
62,5/26/2021 7:15,-0.720410377,6.05,8.24,0.4,0.88,14.00761667
63,5/26/2021 7:30,-0.822347214,6.05,8.24,0.4,0.93,36.38546667
64,5/26/2021 7:45,-0.822347214,6.04,8.24,0.41,0.95,16.98788333
65,5/26/2021 8:00,-0.847831423,6.03,8.24,0.41,0.91,24.88006667
66,5/26/2021 8:15,-0.822347214,6.03,8.24,0.4,0.84,42.16726667
67,5/26/2021 8:30,-0.771378796,6.02,8.24,0.41,0.91,39.04973333
68,5/26/2021 8:45,-0.720410377,6.02,8.24,0.4,0.83,41.64023333
69,5/26/2021 9:00,-0.796863005,6.01,8.24,0.42,0.86,44.25535
70,5/26/2021 9:15,-0.771378796,6,8.24,0.42,0.88,58.5449
71,5/26/2021 9:30,-0.847831423,5.98,8.24,0.42,0.91,439.4726667
72,5/26/2021 9:45,-0.33856416,5.99,8.24,0.39,0.89,501.6386667
73,5/26/2021 10:00,-0.847831423,5.98,8.23,0.4,0.84,422.6915
74,5/26/2021 10:15,-0.847831423,5.99,8.23,0.4,0.88,389.5206667
75,5/26/2021 10:30,-0.847831423,5.98,8.23,0.42,0.87,151.1831667
76,5/26/2021 10:45,-0.847831423,5.96,8.23,0.41,0.95,239.0306667
77,5/26/2021 11:00,-0.847831423,5.97,8.23,0.41,0.93,169.7911667
78,5/26/2021 11:15,-0.847831423,5.97,8.23,0.41,0.95,189.303
79,5/26/2021 11:30,-0.847831423,5.97,8.23,0.41,0.9,178.0523333
80,5/26/2021 11:45,-0.847831423,5.97,8.23,0.42,0.85,217.4016667
81,5/26/2021 12:00,-0.847831423,5.96,8.23,0.4,0.9,187.5149153
82,5/26/2021 12:15,-0.847831423,5.96,8.23,0.41,0.86,153.8595
83,5/26/2021 12:30,-0.847831423,5.95,8.23,0.41,0.88,159.2145
84,5/26/2021 12:45,-0.847831423,5.95,8.23,0.41,0.87,191.2513333
85,5/26/2021 13:00,-0.847831423,5.94,8.23,0.41,0.91,161.3855
86,5/26/2021 13:15,-0.873263518,5.94,8.23,0.42,0.92,157.3415
87,5/26/2021 13:30,-0.822347214,5.94,8.22,0.43,0.98,165.4305
88,5/26/2021 13:45,-0.847831423,5.94,8.22,0.42,1.01,163.318
89,5/26/2021 14:00,-0.847831423,5.96,8.22,0.44,1.06,201.3195
90,5/26/2021 14:15,-0.873263518,5.98,8.22,0.42,0.98,180.691
91,5/26/2021 14:30,-0.873263518,5.99,8.22,0.43,1.01,171.283
92,5/26/2021 14:45,-0.847831423,6.01,8.22,0.41,0.96,195.5781667
93,5/26/2021 15:00,-0.847831423,6.02,8.22,0.43,1.08,138.1506667
94,5/26/2021 15:15,-0.873263518,6.06,8.23,0.42,0.94,174.961
95,5/26/2021 15:30,-0.847831423,6.06,8.23,0.42,1.01,155.6791667
96,5/28/2021 0:00,1.206923941,6.44,8.26,0.4,1.02,0.00069469
97,5/28/2021 14:45,-0.905368302,6.01,8.23,0.48,1.17,160.459
98,5/28/2021 15:00,-0.905368302,6.03,8.23,0.47,1.14,153.391
99,5/28/2021 15:15,-0.905368302,6.05,8.23,0.46,1.24,143.2666667
100,5/28/2021 15:30,-0.905368302,6.08,8.23,0.43,1.1,148.9815
101,5/28/2021 15:45,-0.905368302,6.1,8.23,0.45,1.19,144.791
102,5/28/2021 16:00,-0.905368302,6.12,8.23,0.45,1.12,140.6113333
103,5/28/2021 16:15,-0.905368302,6.13,8.23,0.44,1.19,137.703
104,5/28/2021 16:30,-0.82604379,6.17,8.23,0.45,1.16,122.7055
105,5/28/2021 16:45,-0.905368302,6.18,8.23,0.43,1.1,116.423
106,5/28/2021 17:00,-0.905368302,6.21,8.23,0.43,1.07,117.0681667
107,5/28/2021 17:15,-0.878926798,6.24,8.23,0.44,1.13,119.3573333
108,5/28/2021 17:30,-0.905368302,6.26,8.24,0.43,1.11,97.36326667
109,5/28/2021 17:45,-0.905368302,6.28,8.24,0.43,1.08,86.60821667
110,5/28/2021 18:00,-0.878926798,6.33,8.24,0.42,1.13,82.94675
111,5/28/2021 18:15,-0.852485294,6.34,8.24,0.43,1.1,75.04483333
112,5/28/2021 18:30,-0.905368302,6.36,8.24,0.44,1.16,68.74608333
113,5/28/2021 18:45,-0.878926798,6.37,8.24,0.43,1.13,62.99865
114,5/28/2021 19:00,-0.905368302,6.41,8.24,0.42,1.1,55.7692
115,5/28/2021 19:15,-0.614511759,6.41,8.25,0.41,1.04,51.38258333
116,5/28/2021 19:30,0.071669599,6.42,8.25,0.41,1.12,42.12965
117,5/28/2021 19:45,0.074073372,6.44,8.25,0.41,1.11,39.72993333
118,5/28/2021 20:00,0.362526141,6.46,8.25,0.42,1.22,32.86403333
119,5/28/2021 20:15,0.441688435,6.48,8.25,0.42,1.13,22.2248
120,5/28/2021 20:30,0.995824491,6.49,8.25,0.42,1.14,13.66963333
121,5/28/2021 20:45,1.312473666,6.49,8.25,0.41,1.19,6.425431667
122,5/28/2021 21:00,1.127761648,6.52,8.26,0.42,1.04,0.000866945
123,5/28/2021 21:15,0.995824491,6.5,8.26,0.43,1.06,0.001614708
124,5/28/2021 21:30,0.995824491,6.49,8.26,0.42,1.02,0.00165547
125,5/28/2021 21:45,1.048599354,6.52,8.26,0.42,1.1,0.001219956
126,5/28/2021 22:00,1.022211923,6.49,8.26,0.41,1.06,0.000711676
127,5/28/2021 22:15,1.312473666,6.5,8.26,0.41,1.06,0.000654534
128,5/28/2021 22:30,1.629771713,6.49,8.26,0.43,1.1,0.00074583
129,5/28/2021 22:45,1.576888705,6.48,8.26,0.47,1.14,0.000426508
130,5/28/2021 23:00,1.312473666,6.45,8.26,0.41,1.08,0.000815809
131,5/28/2021 23:15,1.154149079,6.45,8.26,0.44,1.07,0.000542105
132,5/28/2021 23:30,1.365356674,6.44,8.26,0.41,1.09,0.000664492
133,5/28/2021 23:45,1.259698804,6.43,8.26,0.42,1.11,0.000898212
134,5/29/2021 0:00,1.771532027,6.43,8.26,0.41,1.12,51.55836319
135,5/29/2021 0:15,1.481014419,6.4,8.26,0.42,1.12,0.000899467
136,5/29/2021 0:30,1.423005993,6.39,8.26,0.42,1.19,0.000933666
137,5/29/2021 0:45,1.219976503,6.37,8.26,0.41,1.14,0.00121932
138,5/29/2021 1:00,0.929934373,6.35,8.26,0.44,1.18,0.001242891
139,5/29/2021 1:15,0.755909095,6.34,8.26,0.41,1.07,0.001487166
140,5/29/2021 1:30,0.842921734,6.33,8.26,0.43,1.15,0.00126058
141,5/29/2021 1:45,0.871925947,6.31,8.26,0.43,1,0.001697159
142,5/29/2021 2:00,0.784913308,6.3,8.26,0.42,1.06,0.000965683
143,5/29/2021 2:15,0.755909095,6.28,8.26,0.42,1.03,0.001049472
144,5/29/2021 2:30,0.842921734,6.26,8.26,0.42,1.01,0.001259331
145,5/29/2021 2:45,0.842921734,6.25,8.26,0.41,1.13,0.001836478
146,5/29/2021 3:00,0.813917521,6.24,8.26,0.43,1.06,0.001157357
147,5/29/2021 3:15,0.784913308,6.23,8.26,0.41,1.05,0.001799993
148,5/29/2021 3:30,0.146107405,6.2,8.25,0.41,1.06,0.000860974
149,5/29/2021 3:45,0.233298348,6.18,8.25,0.43,1.1,0.00175448
150,5/29/2021 4:00,0.494871179,6.19,8.25,0.43,1.05,0.001226597
151,5/29/2021 4:15,0.494871179,6.17,8.25,0.44,1.11,0.001390759
152,5/29/2021 4:30,0.436743883,6.16,8.25,0.41,1.09,0.001458945
153,5/29/2021 4:45,0.436743883,6.14,8.25,0.42,1.08,0.001084604
154,5/29/2021 5:00,0.291425644,6.13,8.25,0.41,1.11,0.001302953
155,5/29/2021 5:15,0.552879605,6.12,8.25,0.43,1.04,0.000867807
156,5/29/2021 5:30,-0.49198528,6.1,8.25,0.42,1,0.000570891
157,5/29/2021 5:45,-0.549993706,6.1,8.25,0.45,1.11,0.002835255
158,5/29/2021 6:00,-0.645111099,6.07,8.25,0.47,1.28,0.08040795
159,5/29/2021 6:15,-0.666248297,6.09,8.25,0.43,1.07,0.784008833
160,5/29/2021 6:30,-0.782502888,6.07,8.25,0.44,1.08,2.432421667
161,5/29/2021 6:45,-0.434155159,6.06,8.25,0.42,1.09,8.011101667
162,5/29/2021 7:00,-0.89875748,6.06,8.24,0.44,1.12,13.40366667
163,5/29/2021 7:15,-0.89875748,6.05,8.24,0.42,1.12,18.00851667
164,5/29/2021 7:30,-0.89875748,6.01,8.24,0.43,1.13,22.2154
165,5/29/2021 7:45,-0.89875748,6.03,8.24,0.43,1.14,25.13878333
166,5/29/2021 8:00,-0.89875748,6.02,8.24,0.43,1.1,27.44896667
167,5/29/2021 8:15,-0.89875748,6.02,8.24,0.42,1.09,29.97121667
168,5/29/2021 8:30,-0.89875748,6,8.24,0.43,1.09,32.58535
169,5/29/2021 8:45,-0.89875748,6.01,8.24,0.44,1.12,34.26911667
170,5/29/2021 9:00,-0.869693832,5.93,8.24,0.43,1.15,39.08678333
171,5/29/2021 9:15,-0.89875748,5.98,8.24,0.45,1.05,51.85596667
172,5/29/2021 9:30,-0.89875748,5.98,8.24,0.43,1.1,408.5576667
173,5/29/2021 9:45,-0.89875748,5.99,8.24,0.43,1.03,399.0895
174,5/29/2021 10:00,-0.89875748,5.96,8.23,0.43,1.14,548.3601667
175,5/29/2021 10:15,-0.867051682,5.98,8.23,0.43,1.15,441.1363333
176,5/29/2021 10:30,-0.89875748,5.96,8.23,0.44,1.09,147.4373333
177,5/29/2021 10:45,-0.927761692,5.94,8.23,0.44,1.11,227.8903333
178,5/29/2021 11:00,-0.927761692,5.96,8.23,0.46,1.13,164.8841667
179,5/29/2021 11:15,-0.927761692,5.95,8.23,0.43,1.05,168.7063333
180,5/29/2021 11:30,-0.89875748,5.96,8.23,0.44,1.1,176.8195
181,5/29/2021 11:45,-0.927761692,5.94,8.23,0.44,1.06,282.215
182,5/29/2021 12:00,-0.956765905,5.93,8.23,0.45,1.04,156.2038333
183,5/29/2021 12:15,-0.89875748,5.92,8.23,0.43,1.09,152.2236667
184,5/29/2021 12:30,-0.927761692,5.94,8.23,0.43,1.09,151.4723333
185,5/29/2021 12:45,-0.89875748,5.93,8.23,0.43,1.08,156.795
186,5/29/2021 13:00,-0.811566536,5.92,8.22,0.47,1.17,153.28
187,5/29/2021 13:15,-0.89875748,5.93,8.22,0.46,1.14,151.3233333
188,5/29/2021 13:30,-0.89875748,5.94,8.22,0.46,1.26,158.0236667
189,5/29/2021 13:45,-0.89875748,5.93,8.22,0.47,1.26,159.0783333
190,5/29/2021 14:00,-0.89875748,5.95,8.22,0.48,1.26,159.4938333
191,5/29/2021 14:15,-0.927761692,5.98,8.22,0.46,1.29,154.485
192,5/29/2021 14:30,-0.89875748,5.98,8.22,0.47,1.22,156.4646667
193,5/29/2021 14:45,-0.695311945,6,8.22,0.47,1.22,164.1336667
194,5/29/2021 15:00,-0.89875748,6.01,8.22,0.46,1.33,167.768
195,5/29/2021 15:15,-0.89875748,6.05,8.23,0.47,1.31,163.4688333
196,5/29/2021 15:30,-0.89875748,6.06,8.23,0.47,1.3,159.71
197,5/29/2021 15:45,-0.956765905,6.08,8.23,0.48,1.34,155.7506667
198,5/29/2021 16:00,-0.89875748,6.1,8.23,0.48,1.28,150.2926667
199,5/29/2021 16:15,-0.579057354,6.15,8.23,0.43,1.23,133.8003333
200,5/29/2021 16:30,-0.89875748,6.15,8.23,0.47,1.28,137.7151667
201,5/29/2021 16:45,-0.89875748,6.17,8.23,0.47,1.3,127.1191667
202,5/29/2021 17:00,-0.549993706,6.22,8.23,0.46,1.22,115.2545
203,5/29/2021 17:15,-0.782502888,6.23,8.23,0.44,1.3,116.1121667
204,5/29/2021 17:30,-0.867051682,6.24,8.23,0.44,1.21,94.5597
205,5/29/2021 17:45,-0.724375593,6.26,8.23,0.46,1.21,81.29838333
206,5/29/2021 18:00,-0.230947363,6.29,8.24,0.44,1.21,88.10393333
207,5/29/2021 18:15,-0.20194315,6.35,8.24,0.45,1.26,81.78935
208,5/29/2021 18:30,-0.520989493,6.35,8.24,0.43,1.06,68.01301667
209,5/29/2021 18:45,-0.462981067,6.36,8.24,0.42,1.05,66.77178333
210,5/29/2021 19:00,1.219976503,6.41,8.24,0.43,1.14,55.42868333
211,5/29/2021 19:15,0.175171053,6.41,8.24,0.43,1.18,52.77003333
212,5/29/2021 19:30,1.364997567,6.43,8.25,0.43,1.16,47.1967
213,5/29/2021 19:45,0.813917521,6.45,8.25,0.42,1.13,41.17935
214,5/29/2021 20:00,1.19097229,6.47,8.25,0.44,1.24,33.77558333
215,5/29/2021 20:15,1.655277436,6.48,8.25,0.44,1.23,23.0337
216,5/29/2021 20:30,1.481014419,6.49,8.25,0.42,1.13,12.52175
217,5/29/2021 20:45,1.306989141,6.48,8.25,0.46,1.15,6.154176667
218,5/29/2021 21:00,1.19097229,6.48,8.25,0.42,1.13,0.000987147
219,5/29/2021 21:15,1.539022845,6.49,8.25,0.42,1.11,0.001486243
220,5/29/2021 21:30,1.539022845,6.5,8.26,0.45,1.2,0.001154967
221,5/29/2021 21:45,1.74246838,6.51,8.26,0.43,1.13,0.001041525
222,5/29/2021 22:00,1.306989141,6.49,8.26,0.43,1.13,0.000693769
223,5/29/2021 22:15,1.364997567,6.48,8.26,0.44,1.21,0.001353992
224,5/29/2021 22:30,1.19097229,6.47,8.26,0.43,1.16,0.001386992
225,5/29/2021 22:45,1.19097229,6.46,8.26,0.43,1.18,0.000929047
226,5/29/2021 23:00,1.19097229,6.44,8.26,0.44,1.21,0.001363888
227,5/29/2021 23:15,2.816278042,6.43,8.26,0.43,1.14,0.000848901
228,5/29/2021 23:30,0.871925947,6.42,8.26,0.46,1.33,0.00076816
229,5/29/2021 23:45,1.248980715,6.41,8.26,0.42,1.18,0.001398595
230,5/30/2021 0:00,1.132097173,6.39,8.26,0.43,1.24,24.06736713
231,5/30/2021 0:15,1.107707667,6.38,8.26,0.44,1.2,0.001364684
232,5/30/2021 0:30,1.132097173,6.36,8.26,0.42,1.14,0.001292874
233,5/30/2021 0:45,0.839423096,6.35,8.26,0.43,1.16,0.001342041
234,5/30/2021 1:00,0.839423096,6.34,8.26,0.41,1.15,0.000987733
235,5/30/2021 1:15,1.132097173,6.33,8.26,0.43,1.27,0.001103713
236,5/30/2021 1:30,0.619917538,6.32,8.26,0.44,1.22,0.001226153
237,5/30/2021 1:45,1.292064711,6.29,8.26,0.41,1.18,0.001082375
238,5/30/2021 2:00,0.790644083,6.29,8.26,0.43,1.22,0.000954645
239,5/30/2021 2:15,1.107707667,6.27,8.26,0.41,1.12,0.000642143
240,5/30/2021 2:30,1.229855113,6.26,8.26,0.44,1.23,0.001321261
241,5/30/2021 2:45,0.863812602,6.24,8.25,0.43,1.18,0.001107342
242,5/30/2021 3:00,2.523498524,6.22,8.25,0.43,1.29,0.001025321
243,5/30/2021 3:15,1.425370992,6.22,8.25,0.43,1.26,0.000914736
244,5/30/2021 3:30,1.132097173,6.2,8.25,0.45,1.14,0.001090313
245,5/30/2021 3:45,1.107707667,6.18,8.25,0.44,1.16,0.001185758
246,5/30/2021 4:00,1.669266057,6.17,8.25,0.45,1.23,0.001087626
247,5/30/2021 4:15,0.839423096,6.16,8.25,0.45,1.16,0.001206699
248,5/30/2021 4:30,0.668696551,6.16,8.25,0.42,1.14,0.000978819
249,5/30/2021 4:45,1.937600606,6.14,8.25,0.43,1.13,0.000894997
250,5/30/2021 5:00,0.839423096,6.12,8.25,0.44,1.09,0.001463381
251,5/30/2021 5:15,0.546749019,6.12,8.25,0.43,1.1,0.000561736
252,5/30/2021 5:30,0.448941101,6.11,8.25,0.43,1.18,0.000669264
253,5/30/2021 5:45,-0.258704436,6.09,8.25,0.44,1.12,0.002515567
254,5/30/2021 6:00,-0.358479689,6.08,8.25,0.44,1.12,0.098864733
255,5/30/2021 6:15,-0.571333563,6.07,8.25,0.44,1.12,0.860837333
256,5/30/2021 6:30,-0.624597011,6.06,8.24,0.45,1.23,2.682333333
257,5/30/2021 6:45,-0.722304972,6.06,8.24,0.43,1.12,7.834346667
258,5/30/2021 7:00,-0.844502396,6.05,8.24,0.45,1.18,13.70985
259,5/30/2021 7:15,-0.746744457,6.04,8.24,0.45,1.23,18.5195
260,5/30/2021 7:30,-0.844502396,6.02,8.24,0.43,1.19,23.02988333
261,5/30/2021 7:45,-0.820062912,6.03,8.24,0.44,1.2,26.43121667
262,5/30/2021 8:00,-0.795623427,6.03,8.24,0.46,1.22,28.80866667
263,5/30/2021 8:15,-0.771183942,6.02,8.24,0.43,1.12,32.21986667
264,5/30/2021 8:30,-0.795623427,5.97,8.24,0.43,1.18,35.03838333
265,5/30/2021 8:45,-0.893381366,6.01,8.24,0.46,1.14,36.34241667
266,5/30/2021 9:00,-0.893381366,5.99,8.24,0.46,1.23,42.0018
267,5/30/2021 9:15,-0.917820851,5.98,8.23,0.47,1.15,56.4444
268,5/30/2021 9:30,-0.771383856,5.98,8.24,0.43,1.24,374.241
269,5/30/2021 9:45,-0.917820851,5.93,8.23,0.44,1.15,503.1785
270,5/30/2021 10:00,-0.649186431,5.98,8.23,0.46,1.2,536.4658333
271,5/30/2021 10:15,-0.868941881,5.97,8.23,0.45,1.17,319.3135
272,5/30/2021 10:30,-0.868941881,5.97,8.23,0.45,1.14,165.0486667
273,5/30/2021 10:45,-0.893381366,5.96,8.23,0.46,1.24,261.6328333
274,5/30/2021 11:00,-0.917820851,5.95,8.23,0.45,1.19,174.4401667
275,5/30/2021 11:15,-0.917820851,5.96,8.23,0.44,1.14,176.573
276,5/30/2021 11:30,-0.917820851,5.95,8.23,0.43,1.22,188.9153333
277,5/30/2021 11:45,-0.917820851,5.94,8.23,0.45,1.18,258.294
278,5/30/2021 12:00,-0.942210358,5.93,8.23,0.45,1.21,168.3963333
279,5/30/2021 12:15,-0.917820851,5.94,8.23,0.48,1.21,163.1725
280,5/30/2021 12:30,-0.942210358,5.93,8.23,0.46,1.15,163.1991667
281,5/30/2021 12:45,-0.942210358,5.92,8.23,0.46,1.18,169.4538333
282,5/30/2021 13:00,-0.868941881,5.91,8.22,0.44,1.18,161.6823333
283,5/30/2021 13:15,-0.917820851,5.93,8.22,0.43,1.24,167.2963333
284,5/30/2021 13:30,-0.917820851,5.93,8.22,0.47,1.38,170.0743333
285,5/30/2021 13:45,-0.966599864,5.94,8.22,0.45,1.29,168.67
286,5/30/2021 14:00,-0.795773362,5.94,8.22,0.47,1.39,159.3158333
287,5/30/2021 14:15,-0.966599864,5.96,8.22,0.48,1.26,164.5288333
288,5/30/2021 14:30,-0.917820851,5.97,8.22,0.51,1.42,156.8503333
289,5/30/2021 14:45,-0.624696968,5.99,8.22,0.48,1.4,156.9333333
290,5/30/2021 15:00,-0.837837082,6.01,8.22,0.5,1.41,157.9488333
291,5/30/2021 15:15,-0.917820851,6.04,8.22,0.47,1.32,154.4695
292,6/1/2021 0:00,0.946980513,6.38,8.25,0.45,1.12,0.00077994
293,6/1/2021 15:00,-1.06665882,6.05,8.22,0.49,1.22,146.0616667
294,6/1/2021 15:15,-0.941943423,6.06,8.22,0.49,1.21,127.7798333
295,6/1/2021 15:30,-0.983515222,6.09,8.22,0.5,1.22,119.5855
296,6/1/2021 15:45,-1.004301121,6.11,8.22,0.5,1.19,117.8011667
297,6/1/2021 16:00,-0.962729322,6.13,8.22,0.49,1.15,126.0418333
298,6/1/2021 16:15,-0.941943423,6.15,8.22,0.48,1.14,147.0911667
299,6/1/2021 16:30,-0.153226927,6.17,8.23,0.49,1.24,172.8855
300,6/1/2021 16:45,-0.77574124,6.2,8.23,0.49,1.14,124.0241667
301,6/1/2021 17:00,-0.817228025,6.24,8.23,0.48,1.2,98.60628333
302,6/1/2021 17:15,-0.817228025,6.24,8.23,0.48,1.07,86.64603333
303,6/1/2021 17:30,-0.900371624,6.28,8.23,0.47,1.12,86.43835
304,6/1/2021 17:45,1.071398361,6.31,8.23,0.47,1.04,88.82073333
305,6/1/2021 18:00,1.310932765,6.32,8.23,0.48,1.06,81.70591667
306,6/1/2021 18:15,-0.568307314,6.33,8.23,0.46,1.1,78.19936667
307,6/1/2021 18:30,-0.381616781,6.37,8.24,0.48,1.07,70.95133333
308,6/1/2021 18:45,-0.069955808,6.4,8.24,0.48,1.1,66.0147
309,6/1/2021 19:00,0.884580307,6.42,8.24,0.46,1.09,66.39661667
310,6/1/2021 19:15,-0.153099407,6.44,8.24,0.46,1.05,54.94153333
311,6/1/2021 19:30,0.490158299,6.46,8.24,0.45,0.95,49.55578333
312,6/1/2021 19:45,0.427885614,6.49,8.24,0.48,1.07,40.97746667
313,6/1/2021 20:00,1.195901224,6.46,8.24,0.45,1.05,33.5437
314,6/1/2021 20:15,1.154414439,6.45,8.24,0.45,1.03,22.22695
315,6/1/2021 20:30,1.922430048,6.44,8.25,0.48,1.12,13.81728333
316,6/1/2021 20:45,1.52800804,6.47,8.25,0.46,1.08,6.29765
317,6/1/2021 21:00,1.154414439,6.45,8.25,0.47,1.1,0.000910323
318,6/1/2021 21:15,1.54879394,6.46,8.25,0.45,1.06,0.001283092
319,6/1/2021 21:30,1.611151638,6.46,8.25,0.46,1.09,0.00060811
320,6/1/2021 21:45,1.83928645,6.45,8.25,0.47,1.04,0.000894308
321,6/1/2021 22:00,1.40333515,6.44,8.25,0.45,0.93,0.000866515
322,6/1/2021 22:15,1.175157831,6.43,8.25,0.47,1.02,0.000838335
323,6/1/2021 22:30,0.994124587,6.42,8.25,0.5,1.22,0.000531957
324,6/1/2021 22:45,1.341104972,6.42,8.25,0.46,1.05,0.001015938
325,6/1/2021 23:00,1.611151638,6.4,8.25,0.44,1.07,0.000843388
326,6/1/2021 23:15,1.486436241,6.4,8.25,0.46,1.07,0.000741579
327,6/1/2021 23:30,1.341104972,6.37,8.25,0.47,1.08,0.000792855
328,6/1/2021 23:45,1.175157831,6.36,8.25,0.45,1.02,0.000621958
329,6/2/2021 0:00,1.510427516,6.35,8.25,0.46,1.06,21.69561415
330,6/2/2021 0:15,1.559165963,6.35,8.25,0.47,1.12,0.000744939
331,6/2/2021 0:30,1.802858198,6.33,8.25,0.45,1,0.000852455
332,6/2/2021 0:45,1.559165963,6.32,8.25,0.45,1.06,0.000667516
333,6/2/2021 1:00,1.534796739,6.31,8.25,0.45,1.03,0.000698917
334,6/2/2021 1:15,1.046962837,6.31,8.25,0.45,1.04,0.000946571
335,6/2/2021 1:30,1.071381997,6.29,8.25,0.45,1.04,0.00106695
336,6/2/2021 1:45,1.046962837,6.28,8.25,0.46,1.02,0.00127306
337,6/2/2021 2:00,0.998124516,6.27,8.25,0.52,1.17,0.001151594
338,6/2/2021 2:15,0.949336132,6.25,8.25,0.46,1.18,0.000686609
339,6/2/2021 2:30,0.973705356,6.24,8.24,0.46,1.06,0.000889108
340,6/2/2021 2:45,0.266997874,6.23,8.24,0.44,1.02,0.001161653
341,6/2/2021 3:00,0.120782533,6.21,8.24,0.45,1.03,0.000996822
342,6/2/2021 3:15,0.803120791,6.2,8.24,0.45,1.02,0.001044074
343,6/2/2021 3:30,0.388843991,6.17,8.24,0.46,1.03,0.000869353
344,6/2/2021 3:45,0.413213215,6.18,8.24,0.45,0.97,0.001206843
345,6/2/2021 4:00,0.413213215,6.17,8.24,0.44,1,0.001114178
346,6/2/2021 4:15,0.437582438,6.16,8.24,0.45,1.11,0.001322436
347,6/2/2021 4:30,-0.464678075,6.13,8.24,0.44,1.07,0.001047896
348,6/2/2021 4:45,-0.489047298,6.11,8.24,0.48,1.07,0.001638857
349,6/2/2021 5:00,-0.318412797,6.12,8.24,0.45,1.06,0.000652171
350,6/2/2021 5:15,-0.22098584,6.11,8.24,0.45,1.03,0.001215813
351,6/2/2021 5:30,-0.489047298,6.1,8.24,0.46,1.14,0.001344928
352,6/2/2021 5:45,1.144539605,6.09,8.24,0.48,1.11,0.003263582
353,6/2/2021 6:00,-0.001263333,6.08,8.24,0.44,1.02,0.086174083
354,6/2/2021 6:15,-0.489047298,6.08,8.24,0.46,1.09,0.693710167
355,6/2/2021 6:30,-0.123359135,6.07,8.24,0.45,1.04,2.566348333
356,6/2/2021 6:45,-0.249785831,6.05,8.23,0.45,1.11,7.036021667
357,6/2/2021 7:00,-0.675139551,6.06,8.23,0.46,1.01,7.230478333
358,6/2/2021 7:15,-0.754893373,6.05,8.23,0.47,1.04,16.17646667
359,6/2/2021 7:30,-0.78147798,6.03,8.23,0.44,1.03,16.73906667
360,6/2/2021 7:45,-0.701724158,6.02,8.23,0.45,1.03,21.0789
361,6/2/2021 8:00,-0.854735462,6.02,8.23,0.45,1.06,32.32138333
362,6/2/2021 8:15,-0.805897141,6.01,8.23,0.46,1.08,18.14411667
363,6/2/2021 8:30,-0.976831264,6.01,8.23,0.47,1.11,28.24775
364,6/2/2021 8:45,-0.927992943,6.01,8.23,0.45,0.95,42.95596667
365,6/2/2021 9:00,-0.976831264,6.02,8.23,0.44,1,45.54805
366,6/2/2021 9:15,-0.927992943,6,8.23,0.46,1.06,63.45738333
367,6/2/2021 9:30,-0.903573783,5.98,8.23,0.46,1.01,226.592
368,6/2/2021 9:45,-0.781527917,6,8.22,0.47,1.11,411.0823333
369,6/2/2021 10:00,-1.025669585,5.92,8.22,0.48,1.07,488.9305
370,6/2/2021 10:15,-1.074507906,5.99,8.22,0.47,0.99,297.5616667
371,6/2/2021 10:30,-1.050088745,5.98,8.22,0.45,1.08,204.0038333
372,6/2/2021 10:45,-1.025669585,5.99,8.22,0.47,1.08,232.4675
373,6/2/2021 11:00,-1.025669585,5.99,8.22,0.46,1.09,176.1135
374,6/2/2021 11:15,-1.074507906,5.96,8.22,0.48,1.13,170.6685
375,6/2/2021 11:30,-1.074507906,5.98,8.22,0.47,1.07,193.245
376,6/2/2021 11:45,-0.806146826,5.96,8.22,0.48,1.09,315.6466667
377,6/2/2021 12:00,-0.879154622,5.96,8.22,0.47,1.15,150.7986667